This demonstration page uses our WeatherBlox Daily Observations layout. Learn more.

Left ArrowRight Arrow

38.88101, -77.10428

Hourly Observations for November 30, 2018

Temp ( °F °C ) Dew Point ( °F °C ) Humidity (%) Winds ( mph kmh ) Pressure ( in mb ) Visibility ( mi km ) Precip ( " mm )
12:52 am 00:52 Cloudy 39 3.9 22 -5.6 50 50 E 3 6 30.07 1018 10 16.0934 0 0
1:52 am 01:52 Cloudy 40 4.4 21 -6.1 47 47 NE 3 6 30.07 1018 10 16.0934 0 0
2:52 am 02:52 Cloudy 39 3.9 22 -5.6 50 50 ENE 3 6 30.07 1018 10 16.0934 0 0
3:52 am 03:52 Cloudy 39 3.9 23 -5 53 53 NE 6 9 30.06 1018 10 16.0934 0 0
4:52 am 04:52 Cloudy 39 3.9 25 -3.9 57 57 NE 9 15 30.05 1018 10 16.0934 0 0
5:52 am 05:52 Cloudy 39 3.9 26 -3.3 60 60 NE 5 7 30.04 1017 10 16.0934 0 0
6:52 am 06:52 Partly Cloudy 38 3.3 26 -3.3 62 62 E 5 7 30.04 1017 10 16.0934 0 0
7:52 am 07:52 Partly Cloudy 39 3.9 27 -2.8 62 62 NE 5 7 30.04 1017 10 16.0934 0 0
8:52 am 08:52 Mostly Cloudy 41 5 28 -2.2 60 60 NE 7 11 30.05 1018 10 16.0934 0 0
9:52 am 09:52 Mostly Cloudy 42 5.6 29 -1.7 60 60 Calm 30.05 1018 10 16.0934 0 0.0254
10:52 am 10:52 Cloudy with Light Rain 43 6.1 30 -1.1 60 60 Calm 30.06 1018 10 16.0934 0 0.0254
11:52 am 11:52 Cloudy 43 6.1 31 -0.6 63 63 Calm 30.03 1017 10 16.0934 0.01 0.254
12:52 pm 12:52 Cloudy 45 7.2 31 -0.6 58 58 NNE 3 6 30.01 1016 10 16.0934 0 0
1:52 pm 13:52 Mostly Cloudy 46 7.8 31 -0.6 56 56 Calm 29.99 1016 10 16.0934 0 0
2:52 pm 14:52 Mostly Cloudy 47 8.3 32 0 56 56 N 6 9 30.01 1016 10 16.0934 0 0
3:52 pm 15:52 Mostly Cloudy 45 7.2 34 1.1 66 66 NE 6 9 30.03 1017 10 16.0934 0 0
4:52 pm 16:52 Mostly Cloudy 45 7.2 33 0.6 63 63 ENE 5 7 30.04 1017 10 16.0934 0 0
5:52 pm 17:52 Cloudy 45 7.2 33 0.6 63 63 ENE 5 7 30.06 1018 10 16.0934 0 0
6:52 pm 18:52 Mostly Cloudy 43 6.1 32 0 65 65 ENE 6 9 30.08 1019 10 16.0934 0 0
7:52 pm 19:52 Mostly Cloudy 42 5.6 33 0.6 71 71 ENE 6 9 30.1 1019 10 16.0934 0 0
8:52 pm 20:52 Mostly Cloudy 42 5.6 31 -0.6 65 65 Calm 30.12 1020 10 16.0934 0 0
9:52 pm 21:52 Partly Cloudy 42 5.6 33 0.6 71 71 NE 3 6 30.12 1020 10 16.0934 0 0
10:52 pm 22:52 Mostly Cloudy 41 5 34 1.1 76 76 NNE 3 6 30.14 1021 10 16.0934 0 0
11:52 pm 23:52 Mostly Cloudy 40 4.4 33 0.6 77 77 Calm 30.15 1021 10 16.0934 0 0

Powered by AerisWeather